This is the latest recevied weather packets stored in our database for station/object W4SKW. If no packets are shown the sender has not sent any weather packets the latest 10 day(s).
| Time | Temp. | Humidity | Pressure | Rain* | Wind** | Luminosity | Snow |
|---|---|---|---|---|---|---|---|
| 1777493121 | 26.67° C | 70% | 1012.2 hPa | 0 mm | - | 221 W/m² | - |
| 1777492818 | 26.67° C | 70% | 1012.5 hPa | 0 mm | - | 649 W/m² | - |
| 1777492515 | 26.67° C | 70% | 1012.5 hPa | 0 mm | - | 649 W/m² | - |
| 1777492210 | 27.22° C | 70% | 1012.3 hPa | 0 mm | - | 142 W/m² | - |
| 1777491908 | 27.78° C | 68% | 1012.8 hPa | 0 mm | - | 691 W/m² | - |
| 1777491604 | 27.78° C | 67% | 1012.8 hPa | 0 mm | - | 691 W/m² | - |
| 1777491301 | 27.78° C | 73% | 1012.6 hPa | 0 mm | - | 705 W/m² | - |
| 1777490903 | 27.78° C | 68% | 1013 hPa | 0 mm | - | 105 W/m² | - |
| 1777490600 | 27.78° C | 68% | 1013 hPa | 0 mm | - | 105 W/m² | - |
| 1777490296 | 27.78° C | 69% | 1013 hPa | 0 mm | - | 726 W/m² | - |
| 1777489994 | 27.78° C | 70% | 1012.9 hPa | 0 mm | - | 761 W/m² | - |
| 1777489691 | 27.78° C | 69% | 1012.9 hPa | 0 mm | - | 749 W/m² | - |
| 1777489388 | 27.78° C | 71% | 1013 hPa | 0 mm | - | 225 W/m² | - |
| 1777489084 | 27.78° C | 71% | 1013 hPa | 0 mm | - | 225 W/m² | - |
| 1777488781 | 27.22° C | 69% | 1013 hPa | 0 mm | - | 827 W/m² | - |
| 1777488479 | 27.22° C | 71% | 1012.8 hPa | 0 mm | - | 796 W/m² | - |
| 1777488177 | 27.22° C | 72% | 1013.2 hPa | 0 mm | - | 539 W/m² | - |
| 1777487875 | 26.67° C | 73% | 1013.1 hPa | 0 mm | - | 784 W/m² | - |
| 1777487572 | 26.67° C | 73% | 1013.1 hPa | 0 mm | - | 784 W/m² | - |
| 1777487269 | 26.67° C | 73% | 1013.1 hPa | 0 mm | - | 784 W/m² | - |
| 1777486966 | 27.22° C | 72% | 1013.6 hPa | 0 mm | - | 824 W/m² | - |
| 1777486663 | 27.22° C | 73% | 1013.3 hPa | 0 mm | - | 673 W/m² | - |
| 1777486361 | 26.67° C | 72% | 1013.4 hPa | 0 mm | - | 827 W/m² | - |
| 1777486058 | 26.11° C | 78% | 1013.4 hPa | 0 mm | - | 550 W/m² | - |
| 1777485749 | 26.11° C | 74% | 1013.6 hPa | 0 mm | - | 269 W/m² | - |
* Rain latest hour (hover to see other rain measurements)
** Current wind speed in m/s (hover to see current wind gust speed)